• In Netherlands
  • List of Countries
  • For 7 days
  • Water Temperature
  • Satellite Maps
  • Weather Map
  • Weather Widgets
  • user-avatar
    Login

    Hourly Weather Dinagepoor

    Today, 22 February, Wednesday

    Time Temperature Precipitation Wind Pressure Humidity
    00:00 +24°C° 0 mm 2 mps 753 mmHg 49%
    01:00 +24°C° 0 mm 2 mps 753 mmHg 54%
    02:00 +23°C° 0 mm 2 mps 753 mmHg 58%
    03:00 +23°C° 0 mm 2 mps 753 mmHg 63%
    04:00 +21°C° 0 mm 2 mps 753 mmHg 69%
    05:00 +21°C° 0 mm 2 mps 753 mmHg 74%
    06:00 +21°C° 0 mm 1 mps 753 mmHg 78%
    07:00 +23°C° 0 mm 1 mps 753 mmHg 71%
    08:00 +25°C° 0 mm 1 mps 754 mmHg 63%
    09:00 +27°C° 0 mm 1 mps 754 mmHg 55%
    10:00 +30°C° 0 mm 1 mps 754 mmHg 44%
    11:00 +34°C° 0 mm 2 mps 754 mmHg 34%
    12:00 +37°C° 0 mm 2 mps 754 mmHg 21%
    13:00 +37°C° 0 mm 3 mps 753 mmHg 18%
    14:00 +38°C° 0 mm 4 mps 753 mmHg 16%
    15:00 +39°C° 0 mm 5 mps 752 mmHg 13%
    16:00 +36°C° 0 mm 4 mps 752 mmHg 15%
    17:00 +34°C° 0 mm 3 mps 752 mmHg 18%
    18:00 +31°C° 0 mm 2 mps 752 mmHg 22%
    19:00 +30°C° 0 mm 2 mps 752 mmHg 23%
    20:00 +29°C° 0 mm 3 mps 753 mmHg 24%
    21:00 +28°C° 0 mm 3 mps 753 mmHg 25%
    22:00 +27°C° 0 mm 3 mps 753 mmHg 25%
    23:00 +26°C° 0 mm 3 mps 754 mmHg 25%

    Tomorrow, 23 February, Thursday

    Time Temperature Precipitation Wind Pressure Humidity
    00:00 +26°C° 0 mm 3 mps 754 mmHg 25%
    01:00 +24°C° 0 mm 3 mps 754 mmHg 27%
    02:00 +23°C° 0 mm 2 mps 754 mmHg 28%
    03:00 +21°C° 0 mm 2 mps 754 mmHg 30%
    04:00 +21°C° 0 mm 2 mps 754 mmHg 32%
    05:00 +20°C° 0 mm 2 mps 754 mmHg 33%
    06:00 +19°C° 0 mm 2 mps 754 mmHg 35%
    07:00 +21°C° 0 mm 2 mps 755 mmHg 32%
    08:00 +24°C° 0 mm 2 mps 755 mmHg 29%
    09:00 +26°C° 0 mm 2 mps 756 mmHg 26%
    10:00 +29°C° 0 mm 3 mps 756 mmHg 22%
    11:00 +31°C° 0 mm 3 mps 756 mmHg 19%
    12:00 +34°C° 0 mm 4 mps 756 mmHg 15%
    13:00 +34°C° 0 mm 4 mps 755 mmHg 13%
    14:00 +35°C° 0 mm 5 mps 755 mmHg 12%
    15:00 +35°C° 0 mm 5 mps 754 mmHg 11%
    16:00 +33°C° 0 mm 4 mps 754 mmHg 13%
    17:00 +30°C° 0 mm 3 mps 754 mmHg 15%
    18:00 +28°C° 0 mm 2 mps 754 mmHg 17%
    19:00 +27°C° 0 mm 2 mps 755 mmHg 18%
    20:00 +26°C° 0 mm 2 mps 755 mmHg 19%
    21:00 +24°C° 0 mm 2 mps 756 mmHg 20%
    22:00 +23°C° 0 mm 2 mps 756 mmHg 21%
    23:00 +23°C° 0 mm 2 mps 756 mmHg 22%

    Day after tomorrow, 24 February, Friday

    Time Temperature Precipitation Wind Pressure Humidity
    00:00 +21°C° 0 mm 2 mps 756 mmHg 22%
    01:00 +20°C° 0 mm 2 mps 756 mmHg 23%
    02:00 +19°C° 0 mm 2 mps 756 mmHg 24%
    03:00 +18°C° 0 mm 2 mps 756 mmHg 25%
    04:00 +18°C° 0 mm 2 mps 756 mmHg 27%
    05:00 +17°C° 0 mm 2 mps 756 mmHg 28%
    06:00 +16°C° 0 mm 1 mps 756 mmHg 30%
    07:00 +19°C° 0 mm 2 mps 757 mmHg 27%
    08:00 +21°C° 0 mm 2 mps 758 mmHg 24%
    09:00 +24°C° 0 mm 2 mps 758 mmHg 21%
    10:00 +26°C° 0 mm 2 mps 758 mmHg 18%
    11:00 +29°C° 0 mm 3 mps 758 mmHg 15%
    12:00 +31°C° 0 mm 3 mps 758 mmHg 12%
    13:00 +31°C° 0 mm 3 mps 757 mmHg 12%
    14:00 +33°C° 0 mm 3 mps 756 mmHg 11%
    15:00 +33°C° 0 mm 4 mps 755 mmHg 11%
    16:00 +30°C° 0 mm 3 mps 755 mmHg 13%
    17:00 +28°C° 0 mm 2 mps 756 mmHg 16%
    18:00 +26°C° 0 mm 2 mps 756 mmHg 18%
    19:00 +24°C° 0 mm 2 mps 756 mmHg 19%
    20:00 +23°C° 0 mm 2 mps 757 mmHg 20%
    21:00 +21°C° 0 mm 2 mps 757 mmHg 22%
    22:00 +20°C° 0 mm 2 mps 757 mmHg 23%
    23:00 +20°C° 0 mm 1 mps 757 mmHg 24%

    25 February, Saturday

    Time Temperature Precipitation Wind Pressure Humidity
    00:00 +19°C° 0 mm 1 mps 757 mmHg 25%
    01:00 +18°C° 0 mm 1 mps 757 mmHg 26%
    02:00 +18°C° 0 mm 1 mps 757 mmHg 28%
    03:00 +16°C° 0 mm 1 mps 756 mmHg 29%
    04:00 +15°C° 0 mm 1 mps 756 mmHg 31%
    05:00 +15°C° 0 mm 1 mps 757 mmHg 32%
    06:00 +14°C° 0 mm 1 mps 757 mmHg 34%
    07:00 +18°C° 0 mm 1 mps 758 mmHg 29%
    08:00 +22°C° 0 mm 1 mps 758 mmHg 25%
    09:00 +25°C° 0 mm 1 mps 759 mmHg 20%
    10:00 +27°C° 0 mm 1 mps 759 mmHg 17%
    11:00 +30°C° 0 mm 1 mps 759 mmHg 14%
    12:00 +32°C° 0 mm 1 mps 758 mmHg 11%
    13:00 +32°C° 0 mm 1 mps 757 mmHg 10%
    14:00 +34°C° 0 mm 2 mps 756 mmHg 9%
    15:00 +34°C° 0 mm 2 mps 755 mmHg 9%
    16:00 +30°C° 0 mm 2 mps 755 mmHg 11%
    17:00 +28°C° 0 mm 2 mps 755 mmHg 13%
    18:00 +26°C° 0 mm 2 mps 755 mmHg 15%
    19:00 +24°C° 0 mm 2 mps 756 mmHg 16%
    20:00 +23°C° 0 mm 2 mps 756 mmHg 17%
    21:00 +21°C° 0 mm 1 mps 756 mmHg 19%
    22:00 +21°C° 0 mm 1 mps 756 mmHg 20%
    23:00 +20°C° 0 mm 1 mps 756 mmHg 21%

    26 February, Sunday

    Time Temperature Precipitation Wind Pressure Humidity
    00:00 +19°C° 0 mm 1 mps 756 mmHg 22%
    01:00 +18°C° 0 mm 1 mps 756 mmHg 25%
    02:00 +16°C° 0 mm 1 mps 755 mmHg 27%
    03:00 +16°C° 0 mm 1 mps 755 mmHg 29%
    04:00 +15°C° 0 mm 1 mps 755 mmHg 31%
    05:00 +15°C° 0 mm 1 mps 755 mmHg 32%
    06:00 +14°C° 0 mm 1 mps 755 mmHg 34%
    07:00 +19°C° 0 mm 1 mps 756 mmHg 29%
    08:00 +22°C° 0 mm 1 mps 757 mmHg 24%
    09:00 +26°C° 0 mm 1 mps 758 mmHg 20%
    10:00 +28°C° 0 mm 1 mps 758 mmHg 17%
    11:00 +31°C° 0 mm 1 mps 758 mmHg 14%
    12:00 +33°C° 0 mm 1 mps 757 mmHg 11%
    13:00 +34°C° 0 mm 1 mps 756 mmHg 10%
    14:00 +35°C° 0 mm 2 mps 755 mmHg 10%
    15:00 +35°C° 0 mm 2 mps 754 mmHg 10%
    16:00 +31°C° 0 mm 2 mps 754 mmHg 12%
    17:00 +29°C° 0 mm 2 mps 754 mmHg 15%
    18:00 +27°C° 0 mm 1 mps 755 mmHg 18%
    19:00 +25°C° 0 mm 1 mps 755 mmHg 20%
    20:00 +24°C° 0 mm 1 mps 755 mmHg 22%
    21:00 +22°C° 0 mm 1 mps 756 mmHg 24%
    22:00 +21°C° 0 mm 1 mps 756 mmHg 25%
    23:00 +21°C° 0 mm 1 mps 756 mmHg 27%

    27 February, Monday

    Time Temperature Precipitation Wind Pressure Humidity
    00:00 +20°C° 0 mm 1 mps 756 mmHg 28%
    01:00 +19°C° 0 mm 1 mps 755 mmHg 30%
    02:00 +19°C° 0 mm 1 mps 755 mmHg 32%
    03:00 +18°C° 0 mm 1 mps 755 mmHg 34%
    04:00 +18°C° 0 mm 1 mps 755 mmHg 35%
    05:00 +18°C° 0 mm 1 mps 756 mmHg 37%
    06:00 +16°C° 0 mm 1 mps 756 mmHg 39%
    07:00 +20°C° 0 mm 1 mps 757 mmHg 35%
    08:00 +23°C° 0 mm 1 mps 757 mmHg 30%
    09:00 +26°C° 0 mm 1 mps 758 mmHg 26%
    10:00 +28°C° 0 mm 1 mps 758 mmHg 22%
    11:00 +31°C° 0 mm 1 mps 758 mmHg 18%
    12:00 +34°C° 0 mm 1 mps 757 mmHg 14%
    13:00 +35°C° 0 mm 2 mps 757 mmHg 13%
    14:00 +36°C° 0 mm 3 mps 756 mmHg 12%
    15:00 +36°C° 0 mm 3 mps 755 mmHg 11%
    16:00 +34°C° 0 mm 3 mps 755 mmHg 14%
    17:00 +30°C° 0 mm 2 mps 755 mmHg 17%
    18:00 +28°C° 0 mm 2 mps 755 mmHg 20%
    19:00 +27°C° 0 mm 2 mps 756 mmHg 21%
    20:00 +25°C° 0 mm 1 mps 756 mmHg 23%
    21:00 +24°C° 0 mm 1 mps 756 mmHg 25%
    22:00 +23°C° 0 mm 1 mps 756 mmHg 27%
    23:00 +22°C° 0 mm 1 mps 756 mmHg 29%
    Show more